This demonstration page uses our WeatherBlox Daily Observations layout. Learn more.

Left ArrowRight Arrow

53.62937, 11.41316

Hourly Observations for June 18, 2015

Temp ( °F °C ) Dew Point ( °F °C ) Humidity (%) Winds ( mph kmh ) Pressure ( in mb ) Visibility ( mi km ) Precip ( " mm )
5:50 am 05:50 Cloudy with Drizzle 55 13 55 13 100 100 WSW 8 13 29.85 1011 2 4 N/A
6:20 am 06:20 Cloudy with Mist and Fog 57 14 55 13 94 94 WSW 9 15 29.85 1011 3 4 N/A
6:50 am 06:50 Mostly Cloudy 57 14 55 13 94 94 WSW 9 15 29.85 1011 30 48 N/A
7:20 am 07:20 Mostly Cloudy 57 14 55 13 94 94 W 12 19 29.85 1011 30 48 N/A
7:50 am 07:50 Mostly Cloudy 57 14 54 12 88 88 W 12 19 29.85 1011 30 48 N/A
8:20 am 08:20 Mostly Cloudy 59 15 54 12 82 82 W 12 19 29.85 1011 30 48 N/A
8:50 am 08:50 Cloudy 59 15 54 12 82 82 W 12 19 29.85 1011 30 48 N/A
9:20 am 09:20 Mostly Cloudy 61 16 55 13 83 83 W 12 19 29.85 1011 30 48 N/A
9:50 am 09:50 Mostly Cloudy 61 16 52 11 72 72 W 13 20 29.85 1011 30 48 N/A
10:20 am 10:20 Mostly Cloudy 63 17 52 11 68 68 W 13 20 29.85 1011 30 48 N/A
10:50 am 10:50 Cloudy 61 16 50 10 68 68 WSW 12 19 29.85 1011 30 48 N/A
11:20 am 11:20 Mostly Cloudy 61 16 50 10 68 68 W 15 24 29.85 1011 30 48 N/A
11:50 am 11:50 Mostly Cloudy 63 17 50 10 64 64 W 13 20 29.85 1011 30 48 N/A
12:20 pm 12:20 Mostly Sunny 64 18 46 8 52 52 W 15 24 29.85 1011 7 11 N/A
12:50 pm 12:50 Mostly Sunny 64 18 48 9 56 56 W 16 26 29.85 1011 7 11 N/A
1:20 pm 13:20 Mostly Cloudy with Drizzle 64 18 46 8 52 52 W 17 28 29.85 1011 30 48 N/A
1:50 pm 13:50 Cloudy 59 15 48 9 68 68 WNW 15 24 29.85 1011 30 48 N/A
2:20 pm 14:20 Cloudy with Light Rain 55 13 50 10 82 82 WNW 9 15 29.88 1012 30 48 N/A
2:50 pm 14:50 Cloudy with Light Rain 55 13 52 11 88 88 WNW 9 15 29.88 1012 30 48 N/A
3:20 pm 15:20 Mostly Cloudy with Light Rain 57 14 54 12 88 88 WNW 13 20 29.88 1012 30 48 N/A
3:50 pm 15:50 Mostly Cloudy 55 13 50 10 82 82 W 8 13 29.88 1012 30 48 N/A
4:20 pm 16:20 Cloudy 57 14 52 11 82 82 W 8 13 29.88 1012 30 48 N/A
4:50 pm 16:50 Partly Cloudy 59 15 52 11 77 77 WNW 12 19 29.88 1012 30 48 N/A
5:20 pm 17:20 Mostly Cloudy 54 12 50 10 88 88 WNW 8 13 29.88 1012 30 48 N/A
5:50 pm 17:50 Mostly Sunny 55 13 50 10 82 82 W 9 15 29.88 1012 7 11 N/A
6:20 pm 18:20 Mostly Sunny 55 13 50 10 82 82 W 8 13 29.88 1012 7 11 N/A
6:50 pm 18:50 Mostly Cloudy with Drizzle 55 13 48 9 77 77 W 13 20 29.85 1011 30 48 N/A

Powered by AerisWeather